Simultaneous Nadir Overpasses (SNOs) Predictions

Prediction of SNOs between AQUA and METOP-C Satellite Orbit:

Table of predicted SNOs for the next 14.0 days since TLE Epoch: 8/9/2025
Index Date (AQUA) Time (AQUA) Lat,Lon (AQUA) SZA (AQUA ) Date (METOP-C) Time (METOP-C) Lat,Lon (METOP-C) SZA (METOP-C ) Distance(km) Time Diff (sec)
1 08/09/2025 12:21:36 -76.83, 178.13 118.93 08/09/2025 12:21:16 -76.85, 178.21 118.91 2.93 20
2 08/09/2025 13:10:56 76.89, -14.43 61.15 08/09/2025 13:11:55 76.88, -14.33 61.14 2.82 59
3 08/12/2025 00:20:17 76.81, 178.59 61.80 08/12/2025 00:19:32 76.80, 178.48 61.79 2.75 45
4 08/12/2025 01:09:35 -76.85, -13.90 118.15 08/12/2025 01:10:13 -76.85, -14.02 118.16 3.16 38
5 08/14/2025 12:18:57 -76.80, 179.01 117.45 08/14/2025 12:17:50 -76.82, 178.96 117.44 1.92 67
6 08/14/2025 13:08:17 76.87, -13.56 62.63 08/14/2025 13:08:29 76.84, -13.60 62.61 3.05 12
7 08/17/2025 01:06:56 -76.85, -13.07 116.60 08/17/2025 01:06:47 -76.85, -13.14 116.60 1.79 9
8 08/17/2025 01:56:16 76.92, 154.35 63.48 08/17/2025 01:57:25 76.92, 154.48 63.49 3.45 69
9 08/19/2025 13:05:36 76.84, -12.63 64.20 08/19/2025 13:05:03 76.84, -12.76 64.20 3.37 33
10 08/19/2025 13:54:54 -76.88, 154.90 115.75 08/19/2025 13:55:44 -76.88, 154.74 115.75 4.03 50
11 08/22/2025 01:04:14 -76.83, -12.18 114.98 08/22/2025 01:03:21 -76.83, -12.34 114.97 4.10 53
12 08/22/2025 01:53:34 76.90, 155.22 65.11 08/22/2025 01:53:59 76.91, 155.28 65.12 1.59 25



Historial Predications of SNOs between AQUA and METOP-C
